This is the latest recevied weather packets stored in our database for station/object OK0BH-6. If no packets are shown the sender has not sent any weather packets the latest 1 day(s).
| Time | Temp. | Humidity | Pressure | Rain* | Wind** | Luminosity | Snow |
|---|---|---|---|---|---|---|---|
| 1778068367 | 22.22° C | 38% | 1007.9 hPa | - | - | - | - |
| 1778064918 | 22.22° C | 39% | 1008.2 hPa | - | - | - | - |
| 1778064343 | 21.67° C | 39% | 1008.4 hPa | - | - | - | - |
| 1778063193 | 21.11° C | 39% | 1008.8 hPa | - | - | - | - |
| 1778062043 | 21.11° C | 39% | 1008.8 hPa | - | - | - | - |
| 1778060319 | 20.56° C | 40% | 1009 hPa | - | - | - | - |
| 1778059744 | 20° C | 40% | 1009 hPa | - | - | - | - |
| 1778059169 | 20° C | 40% | 1008.9 hPa | - | - | - | - |
| 1778058594 | 20° C | 40% | 1009 hPa | - | - | - | - |
| 1778056295 | 18.89° C | 41% | 1009 hPa | - | - | - | - |
| 1778055720 | 18.89° C | 41% | 1009.2 hPa | - | - | - | - |
| 1778055145 | 18.89° C | 41% | 1009.3 hPa | - | - | - | - |
| 1778054570 | 18.89° C | 41% | 1009.2 hPa | - | - | - | - |
| 1778053420 | 18.89° C | 41% | 1009.1 hPa | - | - | - | - |
| 1778051121 | 16.67° C | 42% | 1009.2 hPa | - | - | - | - |
| 1778050546 | 16.67° C | 42% | 1009.2 hPa | - | - | - | - |
| 1778049971 | 16.11° C | 42% | 1009.1 hPa | - | - | - | - |
| 1778049396 | 16.11° C | 42% | 1009.1 hPa | - | - | - | - |
| 1778047097 | 15.56° C | 42% | 1008.9 hPa | - | - | - | - |
| 1778046522 | 15.56° C | 42% | 1008.9 hPa | - | - | - | - |
| 1778045947 | 15° C | 42% | 1008.9 hPa | - | - | - | - |
| 1778043073 | 15° C | 41% | 1008.5 hPa | - | - | - | - |
| 1778041923 | 15° C | 41% | 1008.4 hPa | - | - | - | - |
| 1778041348 | 15.56° C | 41% | 1008.1 hPa | - | - | - | - |
| 1778040773 | 15.56° C | 41% | 1008.1 hPa | - | - | - | - |
* Rain since midnight (hover to see other rain measurements)
** Current wind speed in m/s (hover to see current wind gust speed)